�N����,����,�~����,�C��,���x,�C��,����,���ϕ���,�ő�u�ԕ���,�ő厞����,���˗�,�I�_���x,�n�����x,�ő啗���N��,DTYPE
"24/02/18","00:10",0.0,9.1,92.4,1019.9,309.4,1.6,1.9,310.8,0.00,8.0,9.3,"00:08:00",1
"24/02/18","00:20",0.0,9.2,92.5,1019.9,301.5,1.1,2.0,312.9,0.00,8.1,9.2,"00:16:16",1
"24/02/18","00:30",0.0,9.2,92.6,1019.7,303.0,1.7,2.1,313.7,0.00,8.1,9.0,"00:22:00",1
"24/02/18","00:40",0.0,9.4,92.7,1020.1,301.1,1.6,2.4,311.8,0.00,8.3,9.4,"00:30:16",1
"24/02/18","00:50",0.0,9.4,92.8,1020.1,306.8,1.7,2.1,319.9,0.00,8.3,9.2,"00:45:04",1
"24/02/18","01:00",0.0,9.5,92.8,1019.9,300.9,1.5,2.2,321.4,0.00,8.4,9.4,"00:52:16",1
"24/02/18","01:10",0.0,9.6,92.9,1020.1,313.7,1.5,2.5,321.2,0.00,8.5,9.2,"01:05:42",1
"24/02/18","01:20",0.0,9.6,92.8,1020.1,314.9,1.7,2.7,321.0,0.00,8.5,9.1,"01:14:48",1
"24/02/18","01:30",0.0,9.4,92.8,1019.9,298.2,1.5,1.9,313.0,0.00,8.3,9.2,"01:20:32",1
"24/02/18","01:40",0.0,9.3,93.0,1020.4,300.7,1.2,1.7,284.2,0.00,8.3,9.2,"01:33:12",1
"24/02/18","01:50",0.0,9.4,93.0,1020.4,318.0,1.8,2.6,324.9,0.00,8.4,9.0,"01:49:12",1
"24/02/18","02:00",0.0,9.4,93.1,1020.1,313.6,1.8,2.5,313.0,0.00,8.4,9.0,"01:53:12",1
"24/02/18","02:10",0.0,9.4,93.2,1020.4,308.9,1.8,2.2,317.8,0.00,8.4,9.4,"02:08:00",1
"24/02/18","02:20",0.0,9.4,93.2,1020.4,294.7,1.5,1.7,313.2,0.00,8.4,9.3,"02:13:28",1
"24/02/18","02:30",0.0,9.3,93.2,1020.6,298.7,1.6,1.8,292.5,0.00,8.3,9.4,"02:25:52",1
"24/02/18","02:40",0.0,9.2,93.3,1020.6,303.1,1.2,1.9,313.8,0.00,8.2,9.2,"02:39:36",1
"24/02/18","02:50",0.0,9.2,93.4,1020.4,308.1,1.5,2.1,316.9,0.00,8.2,9.2,"02:40:48",1
"24/02/18","03:00",0.0,9.4,93.5,1020.6,310.2,1.6,2.6,306.6,0.00,8.4,9.3,"02:55:44",1
"24/02/18","03:10",0.0,9.4,93.5,1020.6,306.0,1.6,2.2,319.9,0.00,8.4,9.1,"03:00:02",1
"24/02/18","03:20",0.0,9.5,93.6,1020.1,316.8,1.8,2.4,319.7,0.00,8.6,9.1,"03:11:04",1
"24/02/18","03:30",0.0,9.5,93.6,1020.1,308.2,1.6,2.0,303.4,0.00,8.6,9.0,"03:29:52",1
"24/02/18","03:40",0.0,9.5,93.6,1020.1,298.9,1.6,2.6,318.4,0.00,8.6,9.3,"03:30:32",1
"24/02/18","03:50",0.0,9.4,93.7,1020.4,300.9,1.8,2.4,318.9,0.00,8.5,9.1,"03:49:12",1
"24/02/18","04:00",0.0,9.5,93.7,1020.4,310.2,2.1,2.7,320.8,0.00,8.6,9.1,"03:52:48",1
"24/02/18","04:10",0.0,9.5,93.7,1020.6,318.5,1.3,2.1,315.9,0.00,8.6,9.1,"04:08:08",1
"24/02/18","04:20",0.0,9.5,93.7,1020.6,322.2,2.1,2.8,321.2,0.00,8.6,9.0,"04:11:20",1
"24/02/18","04:30",0.0,9.3,93.8,1020.4,304.4,1.6,2.2,315.6,0.00,8.4,9.2,"04:23:28",1
"24/02/18","04:40",0.0,9.3,93.8,1020.6,293.3,1.6,2.1,321.0,0.00,8.4,9.3,"04:39:36",1
"24/02/18","04:50",0.0,9.4,93.8,1020.6,312.9,1.5,2.5,323.7,0.00,8.5,9.2,"04:40:48",1
"24/02/18","05:00",0.0,9.4,93.9,1020.8,309.4,1.7,2.2,312.9,0.00,8.5,9.2,"04:53:12",1
"24/02/18","05:10",0.0,9.5,93.9,1020.8,294.0,1.8,2.4,308.3,0.00,8.6,9.1,"05:04:56",1
"24/02/18","05:20",0.0,9.5,93.9,1021.1,296.0,1.6,2.2,307.9,0.00,8.6,9.2,"05:14:56",1
"24/02/18","05:30",0.0,9.6,94.0,1020.8,312.3,1.6,2.1,307.9,0.00,8.7,9.1,"05:22:48",1
"24/02/18","05:40",0.0,9.5,93.9,1020.8,311.5,2.1,2.6,319.3,0.00,8.6,9.1,"05:31:12",1
"24/02/18","05:50",0.0,9.5,94.0,1021.1,297.2,1.3,1.8,306.4,0.00,8.6,9.2,"05:47:12",1
"24/02/18","06:00",0.0,9.5,94.1,1020.6,303.0,1.6,2.5,327.2,0.00,8.6,9.0,"05:57:52",1
"24/02/18","06:10",0.0,9.5,94.1,1020.8,318.6,1.3,2.6,315.1,0.00,8.6,9.3,"06:00:24",1
"24/02/18","06:20",0.0,9.5,94.2,1021.1,316.7,1.8,2.7,316.7,0.00,8.7,9.2,"06:11:52",1
"24/02/18","06:30",0.0,9.5,94.2,1021.1,308.0,1.7,2.4,319.3,0.00,8.7,9.1,"06:24:16",1
"24/02/18","06:40",0.0,9.4,94.3,1021.1,311.7,2.0,2.4,310.7,0.00,8.6,9.1,"06:38:48",1
"24/02/18","06:50",0.0,9.3,94.3,1021.3,305.6,1.7,2.1,320.5,0.00,8.5,9.0,"06:42:40",1
"24/02/18","07:00",0.0,9.3,94.4,1021.1,290.3,1.2,2.0,308.2,0.00,8.5,9.2,"06:51:28",1
"24/02/18","07:10",0.0,9.5,94.5,1021.5,294.4,1.6,2.7,315.8,0.00,8.7,9.0,"07:08:24",1
"24/02/18","07:20",0.0,9.6,94.6,1022.0,311.1,1.7,2.6,318.4,0.00,8.8,9.1,"07:16:40",1
"24/02/18","07:30",0.0,9.9,94.6,1021.8,307.3,1.8,2.4,311.4,0.00,9.1,9.0,"07:20:16",1
"24/02/18","07:40",0.0,10.2,94.6,1021.8,307.1,1.7,2.8,312.9,0.00,9.4,9.2,"07:31:36",1
"24/02/18","07:50",0.0,10.5,94.6,1022.0,292.4,1.7,2.0,300.4,0.01,9.7,9.0,"07:42:42",1
"24/02/18","08:00",0.0,10.9,94.5,1022.3,280.5,1.5,1.9,277.1,0.01,10.1,9.0,"07:53:38",1
"24/02/18","08:10",0.0,11.1,94.4,1022.0,292.5,1.5,1.9,307.5,0.03,10.3,9.2,"08:01:22",1
"24/02/18","08:20",0.0,11.6,94.3,1022.0,279.6,0.7,1.4,276.9,0.05,10.8,9.2,"08:10:08",1
"24/02/18","08:30",0.0,11.7,93.6,1022.3,112.5,0.6,1.8,111.0,0.05,10.7,9.4,"08:22:56",1
"24/02/18","08:40",0.0,12.3,92.9,1022.3,265.4,0.5,0.9,287.1,0.07,11.2,9.0,"08:36:16",1
"24/02/18","08:50",0.0,12.4,92.0,1022.5,127.9,1.2,2.4,118.8,0.10,11.2,9.1,"08:48:34",1
"24/02/18","09:00",0.0,12.6,90.7,1022.5,122.5,1.2,1.8,121.5,0.10,11.2,9.3,"08:50:28",1
"24/02/18","09:10",0.0,12.9,89.3,1022.5,113.9,0.8,1.1,114.3,0.11,11.2,9.2,"09:07:26",1
"24/02/18","09:20",0.0,13.0,88.0,1022.7,89.7,1.0,1.4,120.2,0.10,11.1,9.2,"09:10:40",1
"24/02/18","09:30",0.0,13.3,86.5,1022.5,187.6,0.5,0.9,124.6,0.13,11.1,9.5,"09:28:02",1
"24/02/18","09:40",0.0,13.4,85.3,1022.7,128.9,1.0,2.1,119.2,0.14,11.0,9.4,"09:31:24",1
"24/02/18","09:50",0.0,13.6,84.1,1022.7,68.3,0.7,1.9,111.5,0.15,11.0,9.4,"09:42:00",1
"24/02/18","10:00",0.0,13.8,83.1,1022.3,118.9,1.0,2.1,121.9,0.17,11.0,9.4,"09:55:08",1
"24/02/18","10:10",0.0,14.0,82.4,1022.5,107.0,1.0,2.4,113.3,0.19,11.1,9.5,"10:09:20",1
"24/02/18","10:20",0.0,14.1,81.9,1022.5,103.9,0.8,2.0,131.1,0.19,11.1,9.5,"10:10:24",1
"24/02/18","10:30",0.0,14.2,80.9,1022.3,352.2,0.8,2.4,353.5,0.14,11.0,9.6,"10:23:36",1
"24/02/18","10:40",0.0,14.4,80.4,1022.5,173.8,0.8,1.8,144.3,0.16,11.1,9.7,"10:35:28",1
"24/02/18","10:50",0.0,14.5,79.7,1022.3,47.0,0.8,2.5,39.9,0.13,11.1,9.6,"10:45:20",1
"24/02/18","11:00",0.0,14.9,79.4,1022.3,110.0,1.8,3.9,145.1,0.23,11.4,9.6,"10:58:48",1
"24/02/18","11:10",0.0,15.2,78.4,1022.3,109.7,1.6,3.5,123.7,0.24,11.5,9.7,"11:01:44",1
"24/02/18","11:20",0.0,15.4,78.0,1022.0,132.6,1.7,3.6,131.0,0.20,11.6,9.7,"11:19:20",1
"24/02/18","11:30",0.0,15.3,77.7,1021.8,107.0,2.0,4.8,120.8,0.22,11.5,9.9,"11:28:32",1
"24/02/18","11:40",0.0,15.2,77.7,1022.0,109.0,1.8,3.3,104.2,0.19,11.4,10.1,"11:32:48",1
"24/02/18","11:50",0.0,15.4,78.1,1021.8,115.1,1.8,3.6,109.3,0.22,11.6,9.9,"11:40:48",1
"24/02/18","12:00",0.0,15.4,77.7,1021.8,111.7,1.6,3.3,102.2,0.20,11.6,10.0,"11:53:12",1
"24/02/18","12:10",0.0,15.5,77.1,1021.5,101.5,1.1,2.2,109.2,0.18,11.5,10.1,"12:03:52",1
"24/02/18","12:20",0.0,15.6,77.0,1021.3,78.6,1.3,3.1,109.4,0.23,11.6,10.0,"12:13:44",1
"24/02/18","12:30",0.0,16.1,76.4,1021.3,96.8,1.5,2.8,122.2,0.39,12.0,10.2,"12:22:48",1
"24/02/18","12:40",0.0,16.0,75.5,1020.8,80.4,1.6,3.5,116.3,0.23,11.7,10.2,"12:31:36",1
"24/02/18","12:50",0.0,16.0,75.1,1020.6,60.3,1.0,2.0,110.9,0.18,11.6,10.3,"12:44:24",1
"24/02/18","13:00",0.0,16.0,75.1,1021.1,46.2,1.0,2.4,17.2,0.16,11.6,10.3,"12:56:08",1
"24/02/18","13:10",0.0,16.3,74.9,1020.8,61.9,1.1,2.6,117.3,0.22,11.9,10.3,"13:06:24",1
"24/02/18","13:20",0.0,16.5,74.4,1020.6,91.0,1.3,3.3,54.2,0.31,12.0,10.6,"13:13:44",1
"24/02/18","13:30",0.0,16.7,73.5,1020.8,59.8,1.2,3.5,123.0,0.26,12.0,10.5,"13:28:32",1
"24/02/18","13:40",0.0,16.4,73.9,1020.6,91.4,1.5,2.7,111.2,0.18,11.8,10.6,"13:32:08",1
"24/02/18","13:50",0.0,16.3,74.3,1020.6,90.5,1.3,3.4,65.7,0.13,11.8,10.7,"13:46:32",1
"24/02/18","14:00",0.0,16.0,75.1,1020.6,112.2,1.8,3.4,117.2,0.09,11.6,10.7,"13:56:16",1
"24/02/18","14:10",0.0,16.1,75.2,1020.4,47.3,1.0,3.2,28.4,0.13,11.8,10.8,"14:08:48",1
"24/02/18","14:20",0.0,16.2,75.3,1020.1,3.0,1.1,3.3,346.9,0.13,11.9,11.0,"14:10:08",1
"24/02/18","14:30",0.0,16.4,75.5,1020.1,109.8,1.3,3.1,118.7,0.19,12.1,10.7,"14:29:28",1
"24/02/18","14:40",0.0,16.8,74.4,1019.9,93.3,1.6,4.3,124.3,0.27,12.3,10.8,"14:34:24",1
"24/02/18","14:50",0.0,16.6,74.1,1019.9,93.2,1.6,3.9,119.9,0.13,12.0,11.0,"14:42:32",1
"24/02/18","15:00",0.0,16.8,74.5,1019.4,98.9,1.3,3.2,113.1,0.20,12.3,11.0,"14:50:08",1
"24/02/18","15:10",0.0,16.5,74.2,1019.9,86.2,1.6,3.5,107.7,0.13,11.9,11.1,"15:04:32",1
"24/02/18","15:20",0.0,16.5,74.8,1020.1,106.7,1.5,4.0,126.5,0.12,12.1,10.9,"15:11:20",1
"24/02/18","15:30",0.0,16.5,75.5,1019.9,114.9,2.3,3.6,115.3,0.14,12.2,11.2,"15:29:12",1
"24/02/18","15:40",0.0,16.5,75.8,1020.1,115.6,2.1,4.0,126.5,0.14,12.3,11.2,"15:31:04",1
"24/02/18","15:50",0.0,16.4,76.5,1020.4,115.5,1.8,3.9,121.8,0.13,12.3,11.0,"15:47:44",1
"24/02/18","16:00",0.0,16.2,76.5,1019.9,104.8,1.8,3.6,130.0,0.09,12.1,11.3,"15:52:32",1
"24/02/18","16:10",0.0,16.5,77.0,1019.9,110.6,1.6,3.1,114.5,0.14,12.5,11.2,"16:01:36",1
"24/02/18","16:20",0.0,16.8,75.7,1020.1,101.3,1.7,4.0,116.7,0.18,12.5,11.2,"16:15:44",1
"24/02/18","16:30",0.0,16.8,75.2,1020.1,111.9,2.0,3.9,100.5,0.15,12.4,11.3,"16:28:32",1
"24/02/18","16:40",0.0,17.0,74.9,1020.1,102.8,1.1,2.1,115.9,0.12,12.6,11.3,"16:31:44",1
"24/02/18","16:50",0.0,16.9,74.3,1020.1,113.9,1.0,2.1,107.8,0.09,12.3,11.2,"16:45:28",1
"24/02/18","17:00",0.0,16.4,74.6,1020.1,91.5,0.6,1.4,106.7,0.02,11.9,11.3,"16:52:48",1
"24/02/18","17:10",0.0,16.1,75.9,1020.4,97.1,0.8,2.9,41.9,0.02,11.9,11.2,"17:01:44",1
"24/02/18","17:20",0.0,16.0,76.6,1020.4,57.9,0.3,1.3,74.9,0.01,11.9,11.2,"17:12:00",1
"24/02/18","17:30",0.0,15.7,77.5,1020.4,113.4,1.1,2.8,133.3,0.00,11.8,11.3,"17:24:32",1
"24/02/18","17:40",0.0,15.5,78.2,1020.4,318.7,0.7,1.6,312.5,0.00,11.8,11.3,"17:31:44",1
"24/02/18","17:50",0.0,15.1,79.0,1020.8,325.9,1.1,1.8,326.5,0.00,11.5,11.3,"17:45:02",1
"24/02/18","18:00",0.0,14.6,79.8,1020.6,322.1,1.0,1.7,330.3,0.00,11.2,11.4,"17:54:50",1
"24/02/18","18:10",0.0,14.2,81.0,1020.6,323.0,1.1,1.7,315.8,0.00,11.0,11.3,"18:03:30",1
"24/02/18","18:20",0.0,13.8,82.3,1020.8,310.7,1.1,1.9,316.9,0.00,10.9,11.4,"18:12:44",1
"24/02/18","18:30",0.0,13.4,83.4,1020.8,286.5,1.0,1.7,264.5,0.00,10.7,11.2,"18:21:28",1
"24/02/18","18:40",0.0,13.1,84.5,1020.8,311.6,1.3,2.0,321.8,0.00,10.6,11.4,"18:36:52",1
"24/02/18","18:50",0.0,12.7,85.5,1021.1,284.9,1.0,1.9,319.3,0.00,10.4,11.1,"18:49:30",1
"24/02/18","19:00",0.0,12.3,86.3,1021.3,301.4,1.6,2.1,321.1,0.00,10.1,11.2,"18:50:32",1
"24/02/18","19:10",0.0,12.1,87.1,1021.1,301.6,1.6,2.2,311.6,0.00,10.1,11.1,"19:05:02",1
"24/02/18","19:20",0.0,11.9,88.0,1021.1,317.3,1.6,2.2,314.5,0.00,10.0,10.9,"19:11:44",1
"24/02/18","19:30",0.0,11.8,88.8,1020.8,327.1,1.7,2.4,322.3,0.00,10.1,10.9,"19:29:00",1
"24/02/18","19:40",0.0,11.5,89.3,1021.1,309.4,1.5,2.5,318.4,0.00,9.8,11.0,"19:33:48",1
"24/02/18","19:50",0.0,11.3,89.9,1021.1,307.9,1.6,2.2,323.0,0.00,9.7,11.0,"19:46:10",1
"24/02/18","20:00",0.0,11.5,90.7,1020.8,316.5,1.8,2.5,323.1,0.00,10.1,10.9,"19:55:24",1
"24/02/18","20:10",0.0,11.6,91.1,1021.1,304.0,1.7,2.6,310.0,0.00,10.2,10.8,"20:07:34",1
"24/02/18","20:20",0.0,11.5,91.3,1021.1,307.2,1.1,2.2,308.4,0.00,10.2,11.0,"20:12:28",1
"24/02/18","20:30",0.0,11.5,91.7,1021.1,318.3,1.8,2.2,322.7,0.00,10.2,11.0,"20:24:28",1
"24/02/18","20:40",0.0,11.5,92.0,1021.3,319.8,1.7,2.2,321.6,0.00,10.3,10.8,"20:37:32",1
"24/02/18","20:50",0.0,11.4,92.3,1021.5,300.0,1.3,1.7,307.1,0.00,10.2,10.7,"20:40:58",1
"24/02/18","21:00",0.0,11.8,92.6,1021.8,289.7,1.7,2.2,319.4,0.00,10.7,10.8,"20:59:58",1
"24/02/18","21:10",0.0,12.0,92.7,1021.3,301.2,1.3,2.1,320.6,0.00,10.9,10.6,"21:09:08",1
"24/02/18","21:20",0.0,11.9,92.9,1021.3,324.2,1.3,2.2,323.1,0.00,10.8,10.8,"21:16:52",1
"24/02/18","21:30",0.0,11.9,93.0,1021.3,279.5,0.8,1.3,273.3,0.00,10.8,10.8,"21:27:46",1
"24/02/18","21:40",0.0,12.1,93.1,1021.1,307.9,1.7,2.4,311.5,0.00,11.1,10.7,"21:36:20",1
"24/02/18","21:50",0.0,12.1,93.2,1021.3,298.2,1.2,2.2,314.8,0.00,11.1,10.7,"21:43:08",1
"24/02/18","22:00",0.0,12.0,93.3,1021.3,298.0,1.2,2.1,321.7,0.00,11.0,10.5,"21:57:34",1
"24/02/18","22:10",0.0,12.1,93.4,1021.3,291.4,1.6,2.2,308.8,0.00,11.1,10.7,"22:07:46",1
"24/02/18","22:20",0.0,12.3,93.4,1021.3,302.1,1.5,2.1,306.2,0.00,11.3,10.7,"22:11:22",1
"24/02/18","22:30",0.0,12.3,93.4,1020.8,313.0,1.5,2.1,330.3,0.00,11.3,10.7,"22:26:34",1
"24/02/18","22:40",0.0,12.2,93.4,1021.1,308.5,1.3,2.4,313.1,0.00,11.2,10.7,"22:39:48",1
"24/02/18","22:50",0.0,12.1,93.5,1020.8,290.9,1.1,1.8,290.3,0.00,11.1,10.7,"22:42:56",1
"24/02/18","23:00",0.0,12.1,93.6,1020.8,299.8,1.3,2.1,314.4,0.00,11.1,10.7,"22:58:58",1
"24/02/18","23:10",0.0,12.0,93.6,1020.8,304.1,1.3,2.2,324.1,0.00,11.0,10.4,"23:01:10",1
"24/02/18","23:20",0.0,11.8,93.7,1020.4,301.3,1.3,1.6,337.0,0.00,10.9,10.6,"23:19:52",1
"24/02/18","23:30",0.0,11.8,93.7,1020.1,327.0,1.8,2.2,327.1,0.00,10.9,10.6,"23:25:52",1
"24/02/18","23:40",0.0,11.1,93.9,1020.1,301.3,1.8,2.2,321.5,0.00,10.2,10.6,"23:30:18",1
"24/02/18","23:50",0.0,11.0,94.2,1019.9,305.7,1.6,2.1,319.5,0.00,10.1,10.5,"23:48:06",1
"24/02/18","24:00",0.0,11.3,94.4,1019.9,323.0,2.3,3.5,324.5,0.00,10.5,10.5,"23:59:22",1
